TimeEDT,TemperatureF,Dew PointF,Humidity,Sea Level PressureIn,VisibilityMPH,Wind Direction,Wind SpeedMPH,Gust SpeedMPH,PrecipitationIn,Events,Conditions,WindDirDegrees,DateUTC
12:00 AM,75.2,69.8,83,29.93,6.2,SSW,12.7,24.2,N/A,,Mostly Cloudy,200,2014-04-09 04:00:00
1:00 AM,77.0,69.8,78,29.91,6.2,South,9.2,-,N/A,,Mostly Cloudy,180,2014-04-09 05:00:00
2:00 AM,79,76,89,29.89,8,South,17.3,,,,,180,2014-04-09 06:00:00
2:00 AM,78.8,77.0,94,29.88,6.2,South,17.3,-,N/A,,Scattered Clouds,180,2014-04-09 06:00:00
5:00 AM,75,74,95,29.89,8,WNW,17.3,,,Rain,Light Rain Showers,300,2014-04-09 09:00:00
5:00 AM,77.0,73.4,89,29.89,6.2,WNW,17.3,-,N/A,,Mostly Cloudy,300,2014-04-09 09:00:00
6:00 AM,75.2,64.4,69,29.91,6.2,WNW,15.0,-,N/A,,Mostly Cloudy,290,2014-04-09 10:00:00
7:00 AM,75.2,64.4,69,29.94,6.2,WNW,12.7,25.3,N/A,,Overcast,290,2014-04-09 11:00:00
8:00 AM,74,65,66,29.97,8,WNW,16.1,,,,Partly Cloudy,300,2014-04-09 12:00:00
8:00 AM,73.4,64.4,73,29.97,6.2,WNW,16.1,-,N/A,,Overcast,300,2014-04-09 12:00:00
9:00 AM,73.4,64.4,73,29.99,6.2,WNW,15.0,-,N/A,Rain,Light Rain Showers,300,2014-04-09 13:00:00
10:00 AM,73.4,60.8,65,30.01,6.2,NW,11.5,-,N/A,,Overcast,310,2014-04-09 14:00:00
11:00 AM,75,62,56,30.04,8,WNW,11.5,,,,Partly Cloudy,300,2014-04-09 15:00:00
12:00 PM,73.4,59.0,61,30.04,6.2,NW,11.5,-,N/A,,Overcast,310,2014-04-09 16:00:00
1:00 PM,73.4,57.2,57,30.05,6.2,NW,11.5,-,N/A,,Overcast,320,2014-04-09 17:00:00
2:00 PM,75,60,51,30.04,8,WNW,11.5,,,,Partly Cloudy,290,2014-04-09 18:00:00
2:00 PM,75.2,60.8,61,30.04,6.2,WNW,11.5,-,N/A,,Overcast,290,2014-04-09 18:00:00
3:00 PM,75.2,55.4,50,30.04,6.2,North,11.5,-,N/A,,Overcast,360,2014-04-09 19:00:00
4:00 PM,75.2,53.6,47,30.04,6.2,NW,11.5,-,N/A,,Mostly Cloudy,320,2014-04-09 20:00:00
5:00 PM,75.2,60.8,61,30.05,6.2,North,8.1,-,N/A,,Mostly Cloudy,360,2014-04-09 21:00:00
6:00 PM,73.4,57.2,57,30.06,-9999.0,NW,10.4,-,N/A,,Mostly Cloudy,320,2014-04-09 22:00:00
7:00 PM,73.4,55.4,53,30.06,6.2,North,8.1,-,N/A,,Mostly Cloudy,360,2014-04-09 23:00:00
8:00 PM,73,58,49,30.08,8,NNW,11.5,,,,,340,2014-04-10 00:00:00
8:00 PM,73.4,57.2,57,30.07,6.2,NNW,11.5,-,N/A,,Mostly Cloudy,340,2014-04-10 00:00:00
10:00 PM,71.6,55.4,57,30.12,6.2,North,11.5,-,N/A,,Mostly Cloudy,360,2014-04-10 02:00:00
11:00 PM,72,57,50,30.14,8,North,13.8,,,,Mostly Cloudy,10,2014-04-10 03:00:00